Время (UTC), дата Ветер
(°,м/с) 
Видим.   Явления Облачность Т
(°С)
Тd
(°С)
f(%) Тe
(°С)
Pmin
(гПа)
dP
(гПа)
Po
(мм)
O2
(г/м3)
Тmin Tmax R s Состояние
почвы
03 01.01.14 060 (СВ) 10 км  {дождь}  10/10 240 м 
[Sc]
+0.5 -0.2 95 -2  1031.3  0.3  766  308  +0.5    0.6     
06 01.01.14 070 (В) 10 км  в посл. час снег{дождь}  10/10 180 м 
[St]
+0.5 -0.1 96 -2  1032.4  1.2  767  309  +0.4         
09 01.01.14 090 (В) 4000 м  дымка  10/10 240 м 
[St]
+1.1 +0.2 94 -2  1032.4  767  308           
12 01.01.14 080 (В) 10 км    10/10 330 м 
[Sc]
+1.6 +0.4 92 -2  1032  -0.3  767  307           
15 01.01.14 070 (В) 10 км    10/10 240 м 
[St]
+0.4 -0.3 95 -3  1032.4  0.4  767  309    +1.6  0.0     
18 01.01.14 080 (В) 10 км    10/10 240 м 
[Sc]
-0.3 -1 95 -3  1032.6  0.2  767  310           
21 01.01.14 100 (В) 10 км    10/10 210 м 
[Sc]
-1.1 -1.8 95 -4  1032  -0.6  767  310           
00 02.01.14 090 (В) 10 км    10/10 240 м 
[Sc]
-1.3 -2.2 94 -5  1031.7  -0.3  767  311           
03 02.01.14 090 (В) 10 км    10/10 570 м 
[Sc]
-1.2 -2.4 92 -4  1031.1  -0.6  766  310  -1.4         
09 02.01.14 100 (В) 10 км    10/10 270 м 
[Sc]
-0.5 -2.2 88 -4  1029.7  -1.2  765  309           
12 02.01.14 110 (В) 10 км    10/10 480 м 
[Sc]
-0.2 -2.3 86 -4  1028.8  -0.8  764  309           
15 02.01.14 110 (В) 5{10}  10 км  слаб. снег  10/10 400 м 
[Sc]
-0.5 -2.2 88 -4  1028.8  764  309    -0.1  0.0     
18 02.01.14 110 (В) 4{10}  10 км  {снег}  10/10 450 м 
[Sc]
-0.4 -2.2 88 -3  1028.4  -0.4  764  309           
21 02.01.14 110 (В) 10 км    10/10 420 м 
[Sc]
-0.3 -2.2 87 -3  1028  -0.4  764  308           
00 03.01.14 120 (ЮВ) 10 км    10/10 480 м 
[Sc]
-0.4 -2.8 84 -3  1028  764  309           
03 03.01.14 100 (В) 10 км    10/10 500 м 
[Sc]
-0.7 -2.1 90 -3  1027.8  -0.2  764  309  -0.7    0.0     
06 03.01.14 100 (В) 10 км  в посл. час снег  10/10 500 м 
[Sc]
-0.7 -1.7 93 -3  1028.1  0.4  764  309  -1         
09 03.01.14 100 (В) 10 км    9/5 630 м средняя 
[Sc|Ac trans]
+0.8 -2 81 -1  1027.8  -0.3  764  307           
12 03.01.14 100 (В) 10 км    10/8 570 м средняя 
[Sc|Ac und]
+1.4 -1.9 79 +2  1027.7  -0.1  764  306           
15 03.01.14 110 (В) 10 км    10/10 660 м 
[Sc]
+0.3 -1.7 86 1027.9  0.2  764  308    +1.5  0.0     
18 03.01.14 070 (В) 10 км    10/10 900 м 
[Sc]
+0.3 -1.7 86 1028.2  0.3  764  308           
21 03.01.14 090 (В) 10 км    10/10 840 м 
[Sc]
+0.3 -1.1 90 -1  1027.9  -0.3  764  308           
00 04.01.14 100 (В) 10 км    10/8 900 м средняя 
[Sc|Ac und]
-0.6 -1.9 91 -3  1028.4  0.5  764  309           
03 04.01.14 100 (В) 10 км    10/5 1000 м средняя 
[Sc|Ac und]
-0.8 -2.3 90 -3  1028.5  0.1  764  309  -0.9         
06 04.01.14 100 (В) 10 км    9/0 средняя 
[Ac trans]
-0.8 -2 91 -3  1029.5  0.8  765  309  -1         
09 04.01.14 110 (В) 10 км    9/3 300 м средняя 
[Sc|Ac trans]
+0.4 -1 90 -2  1029  -0.2  765  308           
12 04.01.14 110 (В) 10 км    9/4 300 м средняя 
[Sc|Ac trans]
+1.2 -1.1 85 -1  1028.8  -0.4  764  307           
15 04.01.14 110 (В) 10 км    10/8 360 м средняя 
[Sc|Ac und]
+0.3 -1.2 90 -2  1029  0.2  765  308    +1.4       
18 04.01.14 110 (В) 10 км    10/10 270 м 
[St]
-0.4 -1.5 92 -3  1029.1  0.1  765  309           
21 04.01.14 110 (В) 10 км    10/10 240 м 
[St]
-0.5 -1.5 93 -3  1028.9  -0.2  765  309           
00 05.01.14 100 (В) 10 км    10/5 210 м средняя 
[St|Ac As]
-0.9 -1.4 96 -3  1029.5  0.4  765  309           
03 05.01.14 090 (В) 10 км    10/8 120 м кучево-дожд., средняя 
[Cb calv|Ac und]
-1.1 -1.7 96 -4  1029.3  -0.2  765  310  -1.3         
06 05.01.14 090 (В) 10 км  в посл. час ливневой снег  10/8 180 м кучево-дожд., средняя 
[Cb calv|Ac und]
-0.7 -1.3 96 -4  1030.2  1.1  766  309           
09 05.01.14 110 (В) 10 км    9/6 270 м средняя 
[St|Ac trans]
+0.4 -1 90 -3  1028.8  -1.3  764  308           
12 05.01.14 090 (В) 10 км    8/8 330 м 
[Sc]
+0.9 -0.8 88 -2  1029.1  0.2  765  307           
18 05.01.14 100 (В) 10 км    10/10 240 м 
[Sc]
-1.1 -2 93 -4  1030.1  0.2  765  310           
21 05.01.14 120 (ЮВ) 10 км    10/10 240 м 
[St]
-1.3 -2.1 94 -5  1029.6  -0.5  765  310           
00 06.01.14 120 (ЮВ) 10 км    10/10 270 м 
[St]
-0.9 -2 92 -3  1029.1  -0.4  765  309           
03 06.01.14 110 (В) 10 км    10/10 240 м 
[Sc]
-1 -1.8 94 -5  1028.2  -0.8  764  309  -1.4         
06 06.01.14 140 (ЮВ) 10 км    10/10 240 м 
[Sc]
-1.3 -2.1 94 -4  1028.9  0.6  764  310           
09 06.01.14 140 (ЮВ) 10 км    10/10 240 м 
[Sc]
-0.5 -1.6 92 -3  1027.2  -1.6  763  308           
12 06.01.14 130 (ЮВ) 10 км    10/10 240 м 
[Sc]
+0.5 -0.6 92 -1  1026.2  -1  763  307           
15 06.01.14 130 (ЮВ) 10 км    10/10 210 м 
[Sc]
+0.6 -0.2 94 -1  1025.7  -0.5  762  306    +0.7       
18 06.01.14 140 (ЮВ) 10 км  слаб. дождь  10/10 180 м 
[Sc]
+0.4 -0.2 96 1024.9  -0.8  762  306           
21 06.01.14 150 (ЮВ) 0800 м  слаб. морось{дождь}  ?/?  
+0.4 +0.4 100 1023.2  -1.7  760  306           
00 07.01.14 100 (В) 0400 м  слаб. дождь{морось}  10/10 100 м 
[Sc]
+0.8 +0.8 100 1022.2  -0.8  760  305           
03 07.01.14 140 (ЮВ) 0800 м  слаб. дождь{туман}  10/10 120 м 
[Frnb|Ns]
+2.3 +2.3 100 +2  1019.5  -2.6  758  302  +0.2    0.6     
06 07.01.14 180 (Ю) 2000 м  слаб. ливневой дождь  10/8 120 м кучево-дожд., средняя 
[Cb calv|As op]
+3.6 +3.3 98 +2  1018.1  -1.4  757  300           
09 07.01.14 260 (З) 4000 м  слаб. ливневой дождь  10/8 120 м кучево-дожд., средняя 
[Cb calv|As op]
+4.4 +4.1 98 +3  1017  -1  756  299           
12 07.01.14 310 (СЗ) 4000 м  слаб. ливневой дождь  10/8 270 м кучево-дожд., средняя 
[Cb calv|Ac und]
+3.3 +2.5 94 +1  1018  0.9  757  301           
15 07.01.14 330 (СЗ) 10 км  {ливн. осадки}  10/8 240 м средняя 
[Sc|Ac und]
+2.5 +1.8 95 1020.4  2.3  758  302    +4.5  14     
18 07.01.14 340 (С) 10 км  {ливн. осадки}  10/8 210 м средняя 
[Sc|Ac und]
+2 +1.5 97 1022.9  2.5  760  304           
21 07.01.14 040 (СВ) 10 км    10/10 210 м 
[Sc]
+1.5 +1 96 +1  1024.3  1.3  761  305           
00 08.01.14 310 (СЗ) 10 км    10/10 180 м 
[Sc]
+1.9 +1.5 97 +1  1025.8  1.5  762  305           
03 08.01.14 340 (С) 4000 м  слаб. морось  10/10 150 м 
[St]
+1.7 +1.6 99 +1  1026.4  0.6  763  305  +1.5    0.0     
06 08.01.14 тихо ()   4000 м  дымка{морось}  10/10 180 м 
[Sc]
+2 +1.7 98 +2  1027.5  1.1  764  305           
09 08.01.14 220 (ЮЗ) 4000 м  дымка  10/10 150 м 
[Sc]
+2.4 +2.1 98 +1  1027.4  -0.1  764  305           
12 08.01.14 270 (З) 10 км    10/10 300 м 
[Sc]
+2.2 +1.1 92 +2  1027.1  -0.2  763  305           
15 08.01.14 260 (З) 4000 м  слаб. морось{дождь}  10/10 210 м 
[St]
+1.3 +0.4 94 1026.9  -0.2  763  306    +2.6  0.0     
18 08.01.14 230 (ЮЗ) 4000 м  дымка{дождь, морось}  10/10 210 м 
[St]
+1.2 +0.5 95 -2  1025.9  -1  762  306           
21 08.01.14 260 (З) 4000 м  дымка  10/10 270 м 
[St]
+1.5 +0.3 92 -1  1024.9  -0.9  762  305           
00 09.01.14 240 (ЮЗ) 10 км    10/10 330 м 
[Sc]
+1.6 +0.4 92 -1  1023.4  -1.4  761  305           
03 09.01.14 230 (ЮЗ) 4000 м  дымка  10/10 150 м 
[St]
+1.1 +0.5 96 -1  1022.2  -1.2  760  305  +0.9    0.0     
06 09.01.14 220 (ЮЗ) 4000 м  дымка  9/6 180 м средняя 
[Sc|Ac trans]
+1.7 +1.2 97 1020.9  -1.4  759  304           
09 09.01.14 250 (З) 4000 м  дымка  9/5 200 м средняя 
[Sc|Ac trans]
+4 +2.6 91 +1  1018.8  -1.9  757  300           
12 09.01.14 250 (З) 8-12{14}  3000 м  слаб. морось  10/10 120 м 
[St]
+4.7 +4.4 98 +1  1016.4  -2.2  755  299           
15 09.01.14 260 (З) 10-14{14}  2500 м  морось  10/10 120 м 
[St]
+4.4 +4.2 99 +1  1016.1  -0.2  755  299    +5.1  0.5     
18 09.01.14 270 (З) 7-10{14}  3000 м  слаб. морось  10/10 100 м 
[St]
+3.6 +3.3 98 1016.7  0.3  756  300           
21 09.01.14 270 (З) 6-10{11}  4000 м  {морось}  10/10 150 м 
[Sc]
+4 +3.4 96 +1  1017.4  0.7  756  300           
00 10.01.14 260 (З) 4{11}  4000 м  дымка{морось}  9/9 600 м 
[Sc]
+3.4 +2.7 95 +1  1018.2  0.7  757  301           
03 10.01.14 260 (З) 4000 м  дымка  9/9 700 м 
[Sc]
+2.7 +2.1 96 +1  1018.5  0.2  757  302  +2.7    0.0     
06 10.01.14 250 (З) 4000 м  дымка  9/6 1000 м средняя 
[Sc|Ac trans]
+2.5 +2 96 1019.3  0.8  758  302  +2.5         
12 10.01.14 210 (ЮЗ) 4000 м  дымка  10/8 150 м средняя 
[Sc|Ac und]
+4.3 +3.6 95 +3  1016.1  -2.1  755  299           
15 10.01.14 200 (Ю) 10 км    10/10 240 м 
[Sc]
+5.2 +4.5 95 +4  1014.2  -1.8  754  297    +5.3       
18 10.01.14 200 (Ю) 3000 м  слаб. дождь  10/10 180 м 
[Sc]
+6.1 +5.5 96 +5  1011.9  -2.2  752  296           
21 10.01.14 220 (ЮЗ) 8-11{10}  10 км  в посл. час дождь  10/10 480 м 
[Sc]
+6.9 +5.2 89 +4  1009.4  -2.5  750  294           
00 11.01.14 230 (ЮЗ) 10-13{13}  10 км  {дождь}  10/10 360 м 
[Sc]
+6.6 +5 90 +3  1007  -2.3  748  294           
03 11.01.14 260 (З) 10-15{17}  4000 м  слаб. ливневой дождь  10/8 180 м кучево-дожд., средняя 
[Cb calv|Ac und]
+5.2 +4.7 97 +2  1005.6  -1.4  747  295  +5.2       
06 11.01.14 260 (З) 6{17}  10 км  {ливн. осадки}  9/6 540 м средняя 
[Sc|Ac trans]
+4.7 +3.1 89 +2  1009.1  3.3  750  297  +4.1         
09 11.01.14 250 (З) 9-13{13}  10 км    9/6 630 м средняя 
[Sc|Ac trans]
+4.6 +2.6 87 +1  1010.9  1.7  751  297           
12 11.01.14 250 (З) 9-12{14}  10 км    9/6 360 м средняя 
[Sc|Ac trans]
+4 +2.1 87 1011.6  0.7  752  298           
15 11.01.14 250 (З) 8-12{12}  10 км    8/5 540 м средняя 
[Sc|Ac trans]
+3.8 +1.8 87 1012.9  1.2  753  299    +5.4  0.0     
18 11.01.14 250 (З) 8-12{13}  10 км    9/3 300 м средняя 
[Sc|Ac trans]
+4.5 +1.7 82 +1  1013.9  1.1  754  298           
21 11.01.14 260 (З) 8-12{12}  10 км    9/3 300 м средняя 
[Sc|Ac trans]
+4.4 +1.7 83 +1  1014.8  0.7  754  299           
00 12.01.14 260 (З) 5{12}  10 км    9/3 300 м средняя 
[Sc|Ac trans]
+3.7 +1.4 85 +1  1015.9  0.9  755  300           
03 12.01.14 260 (З) 10 км    9/0 средняя 
[Ac trans]
+2.9 +1.2 89 1016.5  0.7  755  301  +2.8         
06 12.01.14 250 (З) 10 км    6/0 средняя, верхняя 
[Ac trans|Ci fib]
+2 +0.9 92 1017.1  0.6  756  302  +1.7         
09 12.01.14 250 (З) 10 км    6/0 средняя, верхняя 
[Ac trans|Ci fib]
+5.3 +0.8 73 +3  1016.1  -0.9  755  298           
12 12.01.14 250 (З) 9-12{12}  10 км    9/0 средняя, верхняя 
[Ac trans|Ci fib]
+5.9 -1.6 59 +3  1014.8  -1.2  754  298           
15 12.01.14 190 (Ю) 5{12}  10 км    10/8 840 м кучево-дожд., средняя 
[Cb calv|Ac und]
+5.5 +1.7 76 +3  1011.7  -3.1  752  297    +6.8       
18 12.01.14 210 (ЮЗ) 5{12}  10 км    9/9 330 м 
[Sc]
+5.1 +3.9 92 +3  1008.2  -3.4  749  296           
21 12.01.14 210 (ЮЗ) 11-16{15}  4000 м  слаб. ливневой дождь  10/8 300 м кучево-дожд., средняя 
[Cb calv|Ac und]
+5.2 +4.4 95 +1  1005.2  -3  747  295           
00 13.01.14 250 (З) 9-13{16}  10 км  {ливн. осадки, дождь}  9/6 300 м средняя 
[St|Ac trans]
+3.4 +1.9 90 1005.7  0.4  747  297           
03 13.01.14 250 (З) 9-12{13}  10 км    9/6 330 м средняя 
[St|Ac trans]
+2.2 +0.5 89 -2  1005.4  -0.2  747  299  +2.2       
06 13.01.14 260 (З) 10-13{14}  10 км    9/6 420 м средняя 
[Sc|Ac trans]
+2.1 +0.1 87 -2  1006.4  0.7  748  299  +1.1         
09 13.01.14 250 (З) 10-14{15}  10 км    9/6 450 м кучево-дожд., средняя 
[Cb calv|Ac trans]
+2.3 +0.1 85 -2  1006.2  748  299           
12 13.01.14 260 (З) 9-12{15}  4000 м  слаб. ливневой снег  10/8 420 м кучево-дожд., средняя 
[Cb calv|Ac und]
+1.7 +0 89 -2  1007.1  0.7  748  300           
15 13.01.14 270 (З) 6-10{12}  10 км  {ливн. осадки, снег}  9/5 800 м средняя 
[Sc|Ac trans]
+2.1 -1.5 77 -1  1008.2  1.1  749  300    +2.7  0.0     
18 13.01.14 260 (З) 10 км  {ливн. осадки, снег}  8/0 средняя 
[Ac trans]
+1.6 +0.1 90 -1  1009.8  1.6  750  301           
21 13.01.14 260 (З) 10 км    5/0 средняя 
[Ac trans]
+0.7 -0.1 94 -1  1010.3  0.5  751  302           
00 14.01.14 250 (З) 10 км    3/0 средняя 
[Ac trans]
-0.2 -1.2 93 -1  1011.8  1.3  752  303           
03 14.01.14 300 (СЗ) 10 км    ясно 
-1.5 -2.2 95 -2  1013.3  1.5  753  305  -1.7         
06 14.01.14 310 (СЗ) 10 км    6/3 1000 м средняя 
[Sc|Ac trans]
-1.5 -2.6 92 -2  1016.7  3.2  755  306  -2.1         
09 14.01.14 320 (СЗ) 10 км    6/6 540 м 
[Sc]
+0.4 -2.7 80 -1  1018.1  1.4  757  305           
12 14.01.14 290 (З) 10 км    8/8 800 м кучево-дожд. 
[Cb calv]
+1.5 -3.7 68 -1  1019.3  1.2  757  304           
15 14.01.14 280 (З) 10 км  {ливн. осадки}  9/6 900 м кучево-дожд., средняя 
[Cb calv|Ac trans]
-0.1 -6.2 64 -3  1021  1.4  759  306    +2.2  0.2     
18 14.01.14 290 (З) 10 км  {ливн. осадки}  6/3 1000 м средняя 
[Sc|Ac trans]
-1.4 -5.1 76 -3  1022.9  1.9  760  308           
21 14.01.14 280 (З) 10 км    3/0 средняя 
[Ac trans]
-3.3 -5.8 83 -4  1024.3  1.3  761  311           
00 15.01.14 300 (СЗ) 10 км    1/1 600 м 
[Sc]
-3.9 -6.3 83 -5  1025.9  1.6  762  312           
03 15.01.14 090 (В) 10 км    ясно 
-6.9 -8 92 -7  1026  762  316  -6.9         
06 15.01.14 240 (ЮЗ) 10 км    3/0 средняя 
[Ac trans]
-5.2 -6.2 93 -5  1027.5  1.5  763  314  -7.4         
09 15.01.14 220 (ЮЗ) 10 км    6/0 средняя 
[Ac trans]
-1.2 -4.7 77 -3  1027.3  763  309           
12 15.01.14 190 (Ю) 10 км    6/0 средняя, верхняя 
[Ac trans|Ci fib]
+1.3 -4 68 1026.1  -1  762  306           
15 15.01.14 150 (ЮВ) 10 км    4/0 средняя, верхняя 
[Ac trans|Ci fib]
-1.8 -3.6 87 -3  1025.5  -0.7  762  309    +1.5       
18 15.01.14 130 (ЮВ) 10 км    5/0 средняя, верхняя 
[Ac trans|Ci fib]
-1.6 -3.4 87 -1  1025.4  762  309           
21 15.01.14 110 (В) 10 км    6/0 средняя, верхняя 
[Ac trans|Ci fib]
-3.9 -4.7 94 -3  1024.1  -1.2  761  312           
00 16.01.14 150 (ЮВ) 10 км    6/0 верхняя 
[Ci fib]
-1.7 -3.5 88 -3  1022  -2.1  759  308           
03 16.01.14 120 (ЮВ) 10 км    8/0 верхняя 
[Ci]
-2.4 -4.8 84 -3  1019.6  -2.3  758  309  -4.3         
06 16.01.14 200 (Ю) 10 км    9/0 средняя, верхняя 
[Ac trans|Ci fib]
-0.5 -4.8 73 -1  1018.3  -1.2  757  306           
09 16.01.14 190 (Ю) 10 км    6/0 средняя, верхняя 
[Ac trans|Ci fib]
+4 -2.1 64 +2  1015.8  -2.4  755  300           
12 16.01.14 220 (ЮЗ) 10 км  в посл. час ливневой дождь  10/4 600 м кучево-дожд., средняя 
[Cb calv|Ac und]
+6.5 -0.7 60 +5  1013.6  -2.1  753  297           
15 16.01.14 220 (ЮЗ) 10 км  в посл. час ливневой дождь  10/6 800 м кучево-дожд., средняя 
[Cb calv|Ac und]
+4.9 +1.6 79 +3  1011.9  -1.7  752  297    +6.6  0.4     
18 16.01.14 230 (ЮЗ) 7-11{10}  4000 м  слаб. ливневой дождь  10/9 150 м кучево-дожд., средняя 
[Cb calv|Ac und]
+6.2 +5.6 96 +4  1011.3  -0.4  752  295           
21 16.01.14 270 (З) 5{12}  1100 м  слаб. ливневой дождь  10/9 60 м кучево-дожд., средняя 
[Cb calv|Ac und]
+4.8 +4.5 98 +3  1011.8  0.4  752  297           
00 17.01.14 280 (З) 2{12}  4000 м  {ливн. осадки, морось}  9/6 240 м средняя 
[St|Ac trans]
+3.9 +2.6 91 +3  1013.4  1.6  753  299           
03 17.01.14 290 (З) 4000 м  дымка  6/6 400 м 
[St]
+1.9 +0.7 92 1014.8  1.3  754  302  +1.7       
06 17.01.14 290 (З) 10 км    10/10 450 м 
[Sc]
+1.3 -0.2 90 1017.1  2.1  756  303  +1.3         
09 17.01.14 270 (З) 10 км    10/10 450 м 
[Sc]
+0.8 -1.3 86 -1  1018  0.9  756  304           
12 17.01.14 290 (З) 10 км    10/10 540 м 
[Sc]
+0.6 -2.3 81 -1  1018.7  0.5  757  305           
18 17.01.14 300 (СЗ) 10 км    10/10 500 м 
[Sc]
-0.1 -3.1 80 -1  1021  1.3  759  306           
21 17.01.14 300 (СЗ) 10 км    10/10 500 м 
[Sc]
-0.3 -3.3 80 -1  1021.6  0.5  759  307           
00 18.01.14 250 (З) 10 км    10/10 480 м 
[Sc]
-0.4 -2.9 83 -1  1021.4  -0.2  759  307           
03 18.01.14 210 (ЮЗ) 10 км    10/10 480 м 
[Sc]
-0.7 -2.3 89 -3  1021  -0.4  759  307  -0.8         
06 18.01.14 130 (ЮВ) 0700 м  сильн. снег  ?/?  
-1.2 -1.5 98 -2  1020.1  -0.9  758  307  -1.3         
09 18.01.14 130 (ЮВ) 1800 м  слаб. переохл. дождь (гололёд){ливн. осадки, снег} [диам. гололёда 1 мм]  10/10 120 м 
[Frnb|Ns]
-0.8 -1.1 98 -4  1016.4  -3.6  755  305           
12 18.01.14 130 (ЮВ) 2500 м  слаб. переохл. дождь (гололёд){ливн. осадки, снег} [диам. гололёда 3 мм]  10/10 120 м 
[Frnb|Ns]
-0.1 -0.4 98 -1  1013.3  -3.1  753  304           
15 18.01.14 240 (ЮЗ) 0100 м  слаб. дождь{туман} [диам. гололёда 0 мм]  ?/?  
+1.6 +1.6 100 +1  1010.7  -2.5  751  301    +1.6     
18 18.01.14 260 (З) 7-10{11}  0900 м  туман{дождь} [диам. гололёда 0 мм]  10/10 100 м 
[St]
+5.2 +5.2 100 +2  1009.4  -1.2  750  296           
00 19.01.14 270 (З) 6{11}  4000 м  дымка{ливн. осадки, туман}  5/5 200 м 
[Sc]
+2.5 +1 90 1013.5  2.4  753  301           
03 19.01.14 320 (СЗ) 6-10{11}  10 км    9/9 400 м 
[Sc]
+0.3 -1.3 89 -3  1016.9  3.2  756  304  +0.3       
06 19.01.14 360 (С) 5{11}  10 км    9/9 450 м 
[Sc]
-1.9 -4.1 85 -5  1020.5  3.5  758  308  -2         
09 19.01.14 020 (С) 10 км    8/8 540 м 
[Sc]
-2.7 -5.3 82 -6  1022.3  1.6  760  310           
12 19.01.14 030 (СВ) 10 км    6/4 300 м средняя, верхняя 
[Sc|Ac trans|Ci fib]
-2.2 -6 75 -5  1023.6  1.3  761  310           
18 19.01.14 060 (СВ) 10 км    8/0 средняя 
[Ac trans]
-5.5 -8.7 78 -9  1026.7  0.9  763  315           
21 19.01.14 060 (СВ) 10 км    8/0 средняя 
[Ac trans]
-6.2 -8.8 82 -10  1027.1  0.3  763  316           
00 20.01.14 060 (СВ) 10 км    9/0 средняя 
[Ac trans]
-7.2 -9.6 83 -11  1026.8  -0.3  763  317           
03 20.01.14 060 (СВ) 10 км    9/3 600 м средняя 
[Sc|Ac trans]
-8.3 -10.2 86 -13  1026.8  763  318  -8.3         
06 20.01.14 060 (СВ) 10 км    10/1 600 м средняя 
[Sc|Ac und]
-8.7 -11.2 82 -14  1027.4  0.6  763  319  -8.9         
09 20.01.14 070 (В) 7-10{10}  10 км    10/3 600 м средняя 
[Sc|Ac und]
-8.5 -11.1 81 -14  1027.5  763  319           
12 20.01.14 070 (В) 7-11{11}  10 км    9/1 600 м средняя, верхняя 
[Sc|Ac trans|Ci fib]
-7.7 -11.2 76 -13  1026.8  -0.6  763  317           
15 20.01.14 070 (В) 8-12{11}  10 км    8/0 средняя 
[Ac trans]
-9.7 -12.6 80 -16  1027.1  0.1  763  320    -7.4       
18 20.01.14 080 (В) 8-12{12}  10 км    9/0 средняя 
[Ac trans]
-10.7 -12.5 86 -17  1027  -0.1  763  321           
21 20.01.14 070 (В) 10-13{13}  10 км    8/1 300 м средняя 
[Sc|Ac trans]
-11.5 -12.8 90 -19  1026.9  763  322           
00 21.01.14 080 (В) 9-13{14}  10 км    9/4 300 м верхняя 
[Sc|Ci fib]
-11.5 -12.9 89 -19  1026.5  -0.4  762  322           
03 21.01.14 080 (В) 10-13{14}  10 км    8/5 400 м верхняя 
[Sc|Ci fib]
-12.1 -13.4 90 -20  1025.6  -0.8  762  322  -12.1         
06 21.01.14 080 (В) 11-14{14}  10 км    9/0 средняя, верхняя 
[Ac trans|Ci]
-10.9 -13.1 84 -19  1025.9  0.1  762  321  -12.2         
09 21.01.14 090 (В) 10-14{14}  10 км  слаб. снег  10/3 600 м средняя 
[Sc|As op]
-8.1 -12.1 73 -15  1024.4  -1.4  761  317           
12 21.01.14 080 (В) 10-15{16}  4000 м  слаб. снег  10/6 600 м средняя 
[Sc|Ac As]
-6.7 -8.9 84 -13  1022.7  -1.5  760  315           
15 21.01.14 090 (В) 11-16{18}  10 км  слаб. снег{ливн. осадки}  10/8 420 м средняя 
[Sc|Ac und]
-7.2 -9.1 86 -14  1022.1  -0.6  759  315    -6.6  0.0     
18 21.01.14 090 (В) 11-15{18}  10 км  слаб. снег{ливн. осадки}  10/8 400 м средняя 
[Sc|As op]
-7.3 -8.5 91 -14  1020.8  -1.3  758  315           
21 21.01.14 090 (В) 11-15{15}  10 км  слаб. снег  10/8 180 м средняя 
[Sc|As op]
-7.4 -8.1 95 -14  1018.9  -1.9  757  314           
00 22.01.14 090 (В) 9-12{15}  2500 м  слаб. ливневой дождь{снег} [диам. гололёда 1 мм]  10/8 150 м кучево-дожд., средняя 
[Cb calv|As op]
-6.7 -7 98 -13  1016.5  -2.3  755  313           
03 22.01.14 090 (В) 10-13{14}  3000 м  слаб. ливневой дождь{снег} [диам. гололёда 4 мм]  10/8 150 м кучево-дожд., средняя 
[Cb calv|As op]
-6 -6.3 98 -12  1013.5  -2.9  753  311  -7.5    0.3     
06 22.01.14 090 (В) 9-12{14}  3000 м  слаб. ливневой дождь{снег} [диам. гололёда 5 мм]  10/8 150 м кучево-дожд., средняя 
[Cb calv|Ac und]
-5.1 -5.3 99 -11  1011.5  -1.8  752  309           
12 22.01.14 090 (В) 5{12}  4000 м  дымка{ливн. осадки} [диам. гололёда 8 мм]  10/10 120 м 
[St]
-2.9 -3.4 96 -6  1006.6  -2.8  748  305           
15 22.01.14 100 (В) 7-10{11}  0500 м  слаб. переохл. дождь (гололёд){туман} [диам. гололёда 9 мм]  ?/?  
-0.4 -0.4 100 -4  1004.8  -1.4  747  301    -0.4     
18 22.01.14 100 (В) 3{11}  3000 м  слаб. дождь{туман} [диам. гололёда 10 мм]  10/10 150 м 
[Frnb|Ns]
+0.1 -0.2 98 -2  1004.3  -0.5  746  301           
21 22.01.14 100 (В) 2500 м  слаб. дождь [диам. гололёда 7 мм]  10/10 120 м 
[Frnb|Ns]
+0.3 +0 98 1003.6  -0.7  746  300           
00 23.01.14 250 (З) 7-10{10}  2500 м  слаб. ливневой дождь со снегом{туман} [диам. гололёда 0 мм]  10/10 100 м кучево-дожд. 
[Cb calv|Ns]
+0.4 +0 97 -3  1004.8  1.2  747  300           
03 23.01.14 260 (З) 7-10{11}  4000 м  слаб. снег{ливн. осадки}  10/10 150 м 
[Frnb|Ns]
-0.1 -0.4 98 -4  1006.5  1.7  748  301  -0.5       
06 23.01.14 260 (З) 4{11}  3000 м  слаб. снег{ливн. осадки}  10/10 120 м 
[Frnb|Ns]
-0.6 -0.9 98 -3  1008.9  2.3  750  303  -0.6         
09 23.01.14 260 (З) 4000 м  слаб. снег{дождь} [диам. гололёда 2 мм]  10/10 300 м 
[Frnb|Ns]
-3.5 -4.4 93 -7  1011  751  307           
12 23.01.14 280 (З) 6{10}  10 км  {снег, дождь} [диам. гололёда 1 мм]  10/8 420 м средняя 
[Sc|Ac und]
-4.6 -6.1 89 -9  1012.3  1.2  752  309           
15 23.01.14 270 (З) 10 км  [диам. гололёда 0 мм]  10/8 570 м средняя 
[Sc|Ac trans]
-5.4 -7.6 84 -9  1014.3  1.7  754  311    +0.1  0.7     
18 23.01.14 270 (З) 10 км  [диам. гололёда 0 мм]  10/8 420 м средняя 
[Sc|Ac und]
-5.3 -7.1 87 -9  1014.9  0.7  754  311           
21 23.01.14 300 (СЗ) 10 км    10/10 400 м 
[Sc]
-5.6 -7.4 87 -7  1015.2  0.2  754  311           
00 24.01.14 290 (З) 4000 м  слаб. снег  10/8 450 м средняя 
[Sc|As op]
-6.5 -9 82 -9  1015.2  754  312           
03 24.01.14 280 (З) 10 км  слаб. ливневой снег  9/6 600 м кучево-дожд., средняя 
[Cb calv|Ac trans]
-8.9 -11.5 81 -12  1016.1  0.8  755  315  -8.8    0.3     
06 24.01.14 280 (З) 10 км  {ливн. осадки}  3/0 средняя 
[Ac trans]
-11.3 -14.2 79 -16  1017.4  1.1  756  319  -11.4         
09 24.01.14 290 (З) 10 км    4/4 200 м 
[St]
-10.8 -14.2 76 -16  1018.6  1.1  757  319           
12 24.01.14 280 (З) 10 км    5/5 630 м 
[Sc]
-10.7 -14.1 76 -16  1019.5  0.9  757  319           
15 24.01.14 280 (З) 10 км  в посл. час снег  8/8 480 м 
[Sc]
-11.3 -13.8 82 -15  1021.3  1.6  759  320    -8.8  0.0     
18 24.01.14 290 (З) 10 км  {снег}  ясно 
-12.1 -14.9 80 -15  1022.7  1.4  760  322           
21 24.01.14 300 (СЗ) 10 км    ясно 
-12.8 -15.2 82 -17  1023.4  0.7  760  323           
00 25.01.14 310 (СЗ) 10 км    ясно 
-13.8 -16.1 82 -17  1024.1  0.6  761  324           
03 25.01.14 330 (СЗ) 10 км    ясно 
-15 -17.3 83 -19  1025.1  0.8  761  326  -15         
06 25.01.14 320 (СЗ) 10 км    ясно 
-15.2 -17.5 82 -20  1025.6  0.5  762  326  -15.6         
09 25.01.14 020 (С) 10 км    3/0 верхняя 
[Ci fib]
-11.4 -14.9 75 -15  1025.5  762  322           
12 25.01.14 360 (С) 10 км    6/0 верхняя 
[Ci fib]
-10 -13.5 76 -14  1024.6  -0.9  761  320           
15 25.01.14 030 (СВ) 10 км    5/0 верхняя 
[Ci fib]
-11.1 -14 79 -15  1025  0.5  761  321    -9.6       
18 25.01.14 060 (СВ) 10 км    4/0 верхняя 
[Ci fib]
-14.1 -16.3 83 -19  1026.2  762  325           
21 25.01.14 060 (СВ) 10 км    3/0 верхняя 
[Ci fib]
-15.4 -17.6 83 -22  1026.1  762  327           
00 26.01.14 070 (В) 10 км    3/0 верхняя 
[Ci fib]
-16.1 -18.2 84 -22  1026.1  762  328           
03 26.01.14 080 (В) 10 км    3/0 верхняя 
[Ci fib]
-16.5 -18.5 85 -22  1025.1  -0.9  761  328  -16.5         
06 26.01.14 070 (В) 8-11{11}  10 км    8/0 средняя, верхняя 
[Ac trans|Ci fib]
-16.2 -18.1 85 -24  1025.3  0.1  761  328  -16.6         
09 26.01.14 080 (В) 9-12{12}  10 км    6/0 средняя, верхняя 
[Ac trans|Ci fib]
-12.8 -15.3 81 -20  1025.2  761  323           
12 26.01.14 080 (В) 9-13{13}  10 км    5/0 средняя, верхняя 
[Ac trans|Ci fib]
-10.4 -13.4 79 -17  1023.9  -1.2  761  320           
15 26.01.14 070 (В) 8-12{13}  10 км    6/0 средняя, верхняя 
[Ac trans|Ci fib]
-12.1 -13.9 86 -19  1024  761  322    -10       
18 26.01.14 070 (В) 10-13{13}  10 км    4/0 средняя 
[Ac trans]
-14.3 -15.6 90 -23  1023.7  -0.3  760  325           
21 26.01.14 070 (В) 9-13{13}  10 км    4/1 200 м средняя 
[St|Ac trans]
-15 -16.3 90 -23  1023  -0.7  760  325           
00 27.01.14 080 (В) 9-12{13}  10 км    3/0 средняя 
[Ac trans]
-14.1 -15.4 90 -22  1021.5  -1.5  759  324           
03 27.01.14 080 (В) 10-14{14}  10 км    9/5 330 м средняя 
[Sc|Ac trans]
-13.6 -15.1 89 -22  1020.5  -1  758  323  -15         
06 27.01.14 080 (В) 11-15{15}  10 км    9/5 450 м средняя 
[Sc|Ac trans]
-13.3 -15.1 86 -22  1020.4  758  322           
09 27.01.14 080 (В) 12-16{15}  10 км    9/4 600 м средняя, верхняя 
[Sc|Ac trans|Ci]
-12 -14.3 83 -20  1019  -1.3  757  320           
12 27.01.14 080 (В) 12-16{16}  10 км    10/5 570 м средняя 
[Sc|Ac und]
-11.4 -13.7 83 -20  1017.8  -0.9  756  319           
15 27.01.14 080 (В) 11-15{16}  1400 м  снег  10/8 120 м средняя 
[Frnb|As op]
-11.2 -12.8 88 -19  1018.2  0.3  756  319    -10.9  0.0     
18 27.01.14 080 (В) 12-15{16}  1200 м  снег  10/10 100 м 
[Frnb|Ns]
-11.2 -12.4 91 -19  1017.1  -1  755  319           
21 27.01.14 080 (В) 12-15{15}  1500 м  снег  10/10 120 м 
[Frnb|Ns]
-11.1 -12.2 92 -19  1016.8  -0.3  755  318           
00 28.01.14 070 (В) 12-17{16}  0700 м  сильн. снег{ливн. осадки}  ?/?  
-10.9 -12.1 91 -19  1016.5  -0.4  755  318           
03 28.01.14 080 (В) 12-16{17}  0900 м  сильная метель{снег}  ?/?  
-10.4 -11.6 91 -18  1015.9  -0.6  755  317  -11.5       
06 28.01.14 080 (В) 10-15{17}  4000 м  метель{снег}  10/0 средняя 
[Ac As]
-10.5 -11.8 90 -18  1017.3  1.3  756  318           
09 28.01.14 070 (В) 12-17{16}  0600 м  ливневой снег  ?/?  
-10.3 -11.9 88 -18  1017  -0.1  755  317           
12 28.01.14 070 (В) 12-15{17}  0200 м  ливневой снег  ?/?  
-10.3 -11 94 -18  1017  755  317           
15 28.01.14 080 (В) 11-15{16}  0300 м  ливневой снег  ?/?  
-11.1 -12 93 -19  1018.8  1.6  757  319    -9.9     
18 28.01.14 070 (В) 13-17{18}  0200 м  сильная метель{ливн. осадки}  ?/?  
-12.1 -13.1 92 -21  1019.7  0.8  757  321           
21 28.01.14 080 (В) 13-18{20}  0200 м  сильная метель  ?/?  
-13.3 -14.4 91 -22  1021.3  1.5  759  323           
00 29.01.14 070 (В) 14-17{20}  0200 м  сильная метель  ?/?  
-14.7 -16 90 -25  1022  0.6  759  325           
03 29.01.14 070 (В) 13-18{20}  0200 м  сильная метель  ?/?  
-15.8 -17.2 89 -26  1023.9  1.7  760  327  -15.8       
06 29.01.14 070 (В) 15-19{20}  0300 м  сильная метель  ?/?  
-16.4 -17.9 88 -27  1025.9  1.9  762  328  -16.5         
09 29.01.14 080 (В) 14-18{20}  0400 м  сильная метель  ?/?  
-17 -18.6 87 -27  1027  1.1  763  329           
12 29.01.14 080 (В) 15-20{21}  0300 м  сильная метель  ?/?  
-17.3 -18.9 87 -28  1027.5  0.4  763  330           
15 29.01.14 080 (В) 15-20{20}  0200 м  сильная метель  ?/?  
-18 -19.6 87 -29  1029.4  1.9  764  331    -15.8     
18 29.01.14 080 (В) 15-19{21}  0300 м  сильная метель  ?/?  
-18.9 -20.7 86 -30  1031  1.5  766  333           
21 29.01.14 080 (В) 15-20{21}  0300 м  сильная метель  ?/?  
-20.3 -22.4 84 -32  1031.7  0.7  766  335           
00 30.01.14 080 (В) 14-19{21}  0400 м  сильная метель  ?/?  
-22.9 -25.2 81 -35  1033.1  1.2  767  339           
03 30.01.14 080 (В) 15-19{19}  0400 м  сильная метель  ?/?  
-24.2 -26.6 80 -37  1034.3  1.2  768  341  -24.2       
06 30.01.14 080 (В) 14-18{19}  0300 м  сильная метель  6/0 верхняя 
[Ci fib]
-24.7 -27.2 80 -37  1036.4  1.9  769  343  -24.7         
09 30.01.14 090 (В) 14-18{19}  0400 м  сильная метель  8/0 средняя, верхняя 
[Ac trans|Ci fib]
-23.2 -25.9 78 -35  1039  2.8  771  341           
12 30.01.14 080 (В) 14-18{19}  0200 м  сильная метель  8/0 средняя, верхняя 
[Ac trans|Ci fib]
-22.7 -25.4 79 -35  1040.6  1.6  773  341           
15 30.01.14 080 (В) 11-15{18}  0400 м  сильная метель  4/0 средняя 
[Ac trans]
-22.3 -25.1 78 -33  1042.7  2.1  774  341    -21.4  0.0     
18 30.01.14 080 (В) 12-15{18}  0900 м  сильная метель  3/0 средняя 
[Ac trans]
-23.8 -26.5 78 -35  1045  2.2  776  344           
03 31.01.14 080 (В) 11-15{17}  0900 м  сильная метель  3/0 средняя 
[Ac trans]
-24.6 -27.6 76 -36  1048.4  0.7  778  347  -24.9         
09 31.01.14 070 (В) 10-14{15}  1800 м  метель  ясно 
-21 -24.6 73 -31  1051.3  0.8  781  342           
12 31.01.14 080 (В) 10-13{15}  1700 м  метель  ясно 
-18.5 -23.1 67 -28  1050.8  -0.2  780  339           
15 31.01.14 070 (В) 7-10{13}  4000 м  позёмок  ясно 
-18.9 -23.3 68 -27  1051.4  0.4  781  340    -18.4       
18 31.01.14 070 (В) 8-11{13}  4000 м  позёмок  ясно 
-20.3 -23.7 75 -29  1051.5  0.2  781  342           
21 31.01.14 080 (В) 7-11{11}  4000 м  позёмок  ясно 
-20.8 -24.1 74 -29  1051.6  781  342           
00 01.02.14 070 (В) 7-10{11}  4000 м  позёмок  ясно 
-21.2 -24.5 74 -29  1051.4  -0.3  781  343           
03 01.02.14 070 (В) 7-10{10}  4000 м  позёмок  ясно 
-21.5 -25.1 73 -30  1050.6  -0.7  780  343  -21.6         
06 01.02.14 080 (В) 7-11{11}  4000 м  позёмок  ясно 
-21.5 -25.2 72 -30  1050.4  -0.3  780  343  -22         
Время (UTC), дата Ветер
(°,м/с) 
Видим.   Явления Облачность Т
(°С)
Тd
(°С)
f(%) Тe
(°С)
Pmin
(гПа)
dP
(гПа)
Po
(мм)
O2
(г/м3)
Тmin Tmax R s Состояние
почвы